www.pogodaiklimat.ru

Погода и климат >> Архив погоды >> Индонезия >> Golea


ПОГОДА в Golea

  • Прогноз погоды в Golea
  • Монитор погоды в Golea
  • Климат города

АРХИВ ПОГОДЫ в Golea

Время (UTC), дата Ветер
(напр.,м/с)
 
Видим.   Явления Облачность Т
(С)
Тd
(С)
f
(%)
Тe
(С)
Тes
(С)
Комфортность P
(гПа)
Po
(гПа)
Тmin
(С)
Tmax
(С)
R
(мм)
R24
(мм)
S
(см)
00 18.05 З 1 10 км 8/4 570 м
[Cu med, cong Ac trans Ci fib]
+27.4 +25.5 89 +40 +44 очень
душно
1007.5 1003.4 +23.0 2
03 18.05 ЮЗ 1 10 км 9/5 570 м
[Cu med, cong Ac trans Ci sp]
+31.0 +26.1 75 +46 +53 опасность
перегрева
1006.9 1002.8
06 18.05 ЮЗ 2 7000 м в посл. час дождь 8/5 540 м
[Cb calv Ac trans Ci sp]
+27.6 +25.8 90 +41 +45 опасность
перегрева
1005.2 1001.1 1
09 18.05 штиль 0 10 км гроза без осадков 8/5 540 м
[Cb cap Ac trans Ci sp]
+30.2 +26.7 82 +47 +47 опасность
перегрева
1006.0 1001.9
12 18.05 штиль 0 10 км в посл. час гроза {дождь} 6/4 540 м
[Cu med, cong Ac trans Ci fib]
+25.8 +25.4 98 +38 +38 очень
душно
1008.0 1003.9 4
15 18.05 штиль 0 10 км 6/4 540 м
[Cu med, cong Ac trans Ci fib]
+25.1 +24.9 99 +36 +36 очень
душно
1008.5 1004.4
18 18.05 штиль 0 10 км 6/4 540 м
[Cu med, cong Ac trans Ci fib]
+24.2 +24.0 99 +33 +33 очень
душно
1007.0 1002.9
00 19.05 штиль 0 10 км 4/1 540 м
[Cu hum Ci fib]
+28.0 +24.8 83 +40 +49 очень
душно
1007.4 1003.3 +22.6 5
03 19.05 СВ 2 10 км 6/4 540 м
[Cu med, cong Ac trans Ci fib]
+31.6 +25.4 70 +46 +56 опасность
перегрева
1006.7 1002.6
06 19.05 СВ 2 10 км 8/5 570 м
[Cu med, cong Ac trans Ci sp]
+32.0 +24.9 66 +45 +50 опасность
перегрева
1004.6 1000.5
12 19.05 штиль 0 10 км 6/4 540 м
[Cb calv Ac trans Ci fib]
+26.2 +25.5 96 +38 +38 очень
душно
1007.4 1003.3 +32.4
18 19.05 З 1 10 км зарница {дождь} 6/4 540 м
[Cb calv Ac trans Ci fib]
+24.4 +24.3 99 +34 +34 очень
душно
1005.9 1001.8 0.0
21 19.05 штиль 0 10 км 6/4 540 м
[Cu med, cong Ac trans Ci fib]
+23.4 +23.0 98 +33 +33 очень
душно
1007.0 1002.9
00 20.05 СВ 2 10 км 5/4 570 м
[Cu med, cong Ac trans Ci fib]
+28.7 +25.4 82 +42 +46 опасность
перегрева
1008.0 1003.9 +22.8 11
03 20.05 С 2 10 км 6/4 540 м
[Cu med, cong Ac trans Ci fib]
+31.4 +25.6 71 +46 +56 опасность
перегрева
1007.3 1003.2
06 20.05 В 3 10 км 6/4 540 м
[Cu med, cong Ac trans Ci fib]
+31.8 +25.1 68 +46 +51 опасность
перегрева
1005.7 1001.6
09 20.05 СВ 1 10 км 6/4 540 м
[Cu med, cong Ac trans Ci fib]
+29.8 +26.1 81 +45 +45 опасность
перегрева
1006.2 1002.1
12 20.05 ЮВ 2 8000 м зарница 10/6 540 м
[Cb cap As op Cs]
+27.5 +25.3 88 +40 +40 очень
душно
1009.2 1005.1 +32.0
15 20.05 штиль 0 8000 м зарница {гроза, дождь} 9/5 540 м
[Cb cap Ac trans Cs]
+23.2 +23.1 99 +32 +32 очень
душно
1009.0 1004.9 56
18 20.05 штиль 0 10 км {гроза, дождь} 6/4 570 м
[Cu med, cong Ac trans Ci fib]
+22.8 +22.7 99 +31 +31 очень
душно
1008.4 1004.3 56
21 20.05 штиль 0 10 км 6/4 570 м
[Cu med, cong Ac trans Ci fib]
+22.2 +21.8 98 +29 +29 очень
душно
1008.3 1004.2
00 21.05 штиль 0 10 км 8/3 570 м
[Cu med, cong Ac trans Ci sp]
+25.8 +25.3 97 +37 +42 очень
душно
1009.2 1005.1 +21.7 56
03 21.05 В 3 10 км 6/3 570 м
[Cu med, cong Ac trans Ci fib]
+30.8 +25.1 72 +45 +54 опасность
перегрева
1007.9 1003.8
06 21.05 СВ 2 10 км 6/4 540 м
[Cu med, cong Ac trans Ci fib]
+31.4 +26.0 73 +47 +53 опасность
перегрева
1006.1 1002.0
09 21.05 СВ 2 10 км 6/5 540 м
[Cb calv Ac trans Ci fib]
+29.8 +25.8 79 +44 +45 опасность
перегрева
1007.0 1002.9
12 21.05 штиль 0 8000 м в посл. час дождь 9/6 500 м
[Cb cap Ac trans Ci fib]
+27.3 +26.5 95 +42 +42 опасность
перегрева
1009.7 1005.6 +31.8 0.0
15 21.05 штиль 0 9000 м {дождь} 8/4 540 м
[Cu med, cong Ac As Ci fib]
+26.2 +25.5 96 +38 +38 очень
душно
1010.3 1006.2 2
18 21.05 штиль 0 9000 м {дождь} 6/4 540 м
[Cu med, cong Ac trans Ci fib]
+24.6 +24.2 98 +34 +34 очень
душно
1008.8 1004.7 2
21 21.05 штиль 0 9000 м в посл. час дождь 8/5 500 м
[Cb cap Ac trans Ci fib]
+23.9 +23.8 99 +32 +32 очень
душно
1009.1 1005.0 0.5
00 22.05 СВ 2 10 км {дождь} 4/3 540 м
[Cu med, cong Ci fib]
+28.6 +24.2 77 +40 +45 очень
душно
1010.5 1006.4 +21.8 2
03 22.05 СВ 2 10 км 5/4 570 м
[Cu med, cong Ac trans Ci fib]
+30.8 +26.3 77 +47 +57 опасность
перегрева
1009.6 1005.5
06 22.05 В 2 10 км 5/4 540 м
[Cu med, cong Ac trans Ci fib]
+30.7 +25.9 76 +46 +53 опасность
перегрева
1007.5 1003.4
09 22.05 В 2 10 км 6/4 540 м
[Cu med, cong Ac trans Ci fib]
+29.4 +26.0 82 +44 +44 опасность
перегрева
1007.1 1003.0
15 22.05 штиль 0 10 км 6/4 570 м
[Cu med, cong Ac trans Ci fib]
+25.6 +24.9 96 +36 +36 очень
душно
1009.4 1005.3
18 22.05 ЮЗ 2 10 км зарница 8/5 540 м
[Cb cap Ac trans Ci fib]
+25.0 +24.0 94 +34 +34 очень
душно
1008.7 1004.6
21 22.05 штиль 0 8000 м в посл. час дождь 10/5 540 м
[Cb cap Ac As Ci sp]
+24.2 +23.8 98 +33 +33 очень
душно
1009.1 1005.0 0.0
00 23.05 штиль 0 10 км в посл. час дождь 9/5 300 м
[Cu med, cong Ac trans Ci fib]
+26.1 +25.4 96 +38 +41 очень
душно
1010.0 1005.9 +23.8 0.8
03 23.05 В 2 10 км 9/5 540 м
[Cu med, cong Ac trans Ci fib]
+30.3 +26.5 80 +46 +53 опасность
перегрева
1008.4 1004.3
06 23.05 В 4 10 км 6/4 570 м
[Cu med, cong Ac trans Ci fib]
+31.3 +26.1 74 +47 +52 опасность
перегрева
1006.6 1002.5
09 23.05 СВ 2 10 км 6/5 570 м
[Cu med, cong Ac trans Ci fib]
+29.2 +26.0 83 +44 +44 опасность
перегрева
1007.0 1002.9
12 23.05 штиль 0 10 км зарница 9/6 500 м
[Cb cap Ac trans Ci sp]
+27.8 +25.5 87 +41 +41 опасность
перегрева
1008.9 1004.8 +31.6
15 23.05 штиль 0 10 км {дождь} 8/4 540 м
[Cu med, cong Ac trans Ci sp]
+25.4 +24.7 96 +36 +36 очень
душно
1009.0 1004.9 0.5
21 23.05 штиль 0 8000 м в посл. час дождь 8/5 500 м
[Cb cap Ac trans Ci sp]
+24.9 +24.7 99 +35 +35 очень
душно
1007.3 1003.2 19
00 24.05 штиль 0 10 км {дождь} 6/4 540 м
[Cu med, cong Ac trans Ci fib]
+26.1 +25.7 98 +38 +44 очень
душно
1008.6 1004.5 +24.2 19
03 24.05 СВ 3 8000 м в посл. час дождь 8/4 540 м
[Cu med, cong Ac As Ci fib]
+28.7 +25.7 84 +43 +49 опасность
перегрева
1007.9 1003.8 2
06 24.05 В 2 10 км {дождь} 6/4 500 м
[Cu med, cong Ac trans Ci fib]
+30.3 +26.5 80 +46 +53 опасность
перегрева
1005.7 1001.6 2
09 24.05 СВ 2 10 км 6/4 500 м
[Cu med, cong Ac trans Ci fib]
+29.2 +26.5 85 +45 +45 опасность
перегрева
1006.3 1002.2
12 24.05 штиль 0 10 км 6/4 540 м
[Cu med, cong Ac trans Ci fib]
+26.6 +25.7 95 +39 +39 очень
душно
1008.6 1004.5 +30.8
15 24.05 штиль 0 9000 м {дождь} 6/4 500 м
[Cu med, cong Ac trans Ci fib]
+25.2 +25.1 99 +36 +36 очень
душно
1008.9 1004.8 9
18 24.05 штиль 0 10 км {дождь} 6/4 500 м
[Cu med, cong Ac trans Ci fib]
+24.2 +24.1 99 +33 +33 очень
душно
1007.6 1003.5 9
21 24.05 штиль 0 10 км 5/3 500 м
[Cu med, cong Ac trans Ci fib]
+23.4 +23.3 99 +33 +33 очень
душно
1007.3 1003.2

 

Местоположение метеостанции Golea (Индонезия): широта 1.82 долгота 127.83 высота над уровнем моря 8 м.

В архиве по умолчанию представлена погода в Golea за последнюю неделю. Архивные данные за месяц целиком и за предыдущие месяцы, начиная с января 2011 года, Вы можете получить, выбрав интересующий диапазон дат из раскрывающегося списка и нажав кнопку "Ввод!".


*Определитесь, кто Вы:
робот инопланетянин человек

Внимание! Время в таблицах - всемирное. Для получения местного времени необходимо прибавить поправку, которая в Golea равна 8 ч.

Смотрите также архив погоды в соседних городах и на ближайших метеорологических станциях:

Погода в Ternate (Индонезия) (128 км)
Погода в Labuha (Индонезия) (275 км)
Погода в Bitung (Индонезия) (298 км)
Погода в Menado (Индонезия) (326 км)
Погода в Sorong-Jefman Airport (Индонезия) (476 км)
Погода в Sanana (Индонезия) (479 км)
Погода в Gorontalo (Индонезия) (550 км)
Погода в General Santos (Филиппины) (561 км)
Погода в Namlea (Индонезия) (570 км)
Погода в Amahai (Индонезия) (587 км)

Пояснения к столбцам:

Ветер - указаны скорость ветра в м/с - средняя за 10 мин, порывы в срок и между сроками (в фигурных скобках) и направление, откуда дует ветер: С - северный, СВ - северо-восточный, В - восточный, ЮВ - юго-восточный, Ю - южный, ЮЗ - юго-западный, З - западный, СЗ - северо-западный.
Видимость - горизонтальная дальность видимости в метрах или километрах. При видимости от 1 до 10 км при отсутствии осадков обычно наблюдается дымка, при ухудшении видимости до 1 км и менее - туман. В сухую погоду видимость может ухудшаться дымом, пылью или мглою.
Явления - указаны атмосферные явления, наблюдавшиеся в срок или в последний час перед сроком; фигурными скобками обозначены явления, наблюдавшиеся между сроками (за 1-3 часа до срока); квадратными скобками обозначены град или гололедные отложения с указанием их диаметра в мм.
Облачность - указаны через наклонную черту общая и нижняя облачность в баллах и высота нижней границы облаков в метрах; квадратными скобками обозначены формы облаков: Ci - перистые, Cs - перисто-слоистые, Cc - перисто-кучевые, Ac - высококучевые, As - высокослоистые, Sc - слоисто-кучевые, Ns - слоисто-дождевые, Cu - кучевые, Cb - кучево-дождевые. Подробнее классификацию облаков см. в Атласе облаков (PDF).
T - Температура воздуха - температура, измеренная на высоте 2 м над землей.
Td - Температура точки росы - температура, при понижении до которой содержащийся в воздухе водяной пар достигнет насыщения.
f - Относительная влажность воздуха - влажноcть воздуха, измеренная на высоте 2 м над землей.
Te - Эффективная температура - температура, которую ощущает одетый по сезону человек в тени. Характеристика душности погоды. При расчете учитывается влияние влажности воздуха и скорости ветра на теплоощущения человека.
Tes - Эффективная температура на солнце - температура, которую ощущает человек, с поправкой на солнечный нагрев. Характеристика знойности погоды. Зависит от высоты солнца над горизонтом, облачности и скорости ветра. Ночью, в пасмурную погоду, а также при ветре 12 м/с и более поправка равна нулю.
P - Атмосферное давление - приведенное к уровню моря атмосферное давление.
Po - Атмосферное давление - измеренное на уровне метеостанции атмосферное давление.
Tmin - Минимальная температура - минимум температуры воздуха на высоте 2 м над землей.
Tmax - Максимальная температура - максимум температуры воздуха на высоте 2 м над землей.
R - Количество осадков - Количество выпавших осадков за период времени, мм. При наведении курсора мыши на число - период времени, за который выпало указанное количество осадков.
R24 - Количество осадков - Количество выпавших осадков за 24 часа, мм.
S - Снежный покров - Высота снежного покрова, см. При наведении курсора мыши на число - состояние снежного покрова и степень покрытия местности в баллах.